• In Deutschland
  • Länderverzeichnis
  • Für 7 Tage
  • Wassertemperatur
  • Satellitenkarten
  • Wetterkarte
  • Widgets
  • user-avatar
    Anmelden

    Stündliche Wetter Lauf an der Pegnitz

    Heute, 19 Oktober, Donnerstag

    Zeit Temperatur Niederschläge Wind Luftdruck Luftfeuchtigkeit
    00:00 +11°C° 0 mm 1 m/S 727 mmHg 80%
    01:00 +11°C° 0 mm 1 m/S 727 mmHg 80%
    02:00 +10°C° 0 mm 1 m/S 727 mmHg 81%
    03:00 +10°C° 0 mm 1 m/S 727 mmHg 82%
    04:00 +10°C° 0 mm 1 m/S 727 mmHg 83%
    05:00 +10°C° 0 mm 1 m/S 727 mmHg 84%
    06:00 +9°C° 0 mm 1 m/S 727 mmHg 84%
    07:00 +9°C° 0 mm 1 m/S 727 mmHg 85%
    08:00 +11°C° 0 mm 1 m/S 727 mmHg 79%
    09:00 +13°C° 0 mm 2 m/S 728 mmHg 72%
    10:00 +15°C° 0 mm 2 m/S 728 mmHg 66%
    11:00 +17°C° 0 mm 2 m/S 728 mmHg 62%
    12:00 +18°C° 0 mm 2 m/S 728 mmHg 58%
    13:00 +20°C° 0 mm 2 m/S 728 mmHg 55%
    14:00 +19°C° 0 mm 2 m/S 727 mmHg 58%
    15:00 +20°C° 0 mm 1 m/S 727 mmHg 62%
    16:00 +19°C° 0 mm 1 m/S 727 mmHg 65%
    17:00 +18°C° 0 mm 1 m/S 727 mmHg 70%
    18:00 +15°C° 0 mm 1 m/S 727 mmHg 76%
    19:00 +13°C° 0 mm 1 m/S 727 mmHg 81%
    20:00 +13°C° 0 mm 1 m/S 727 mmHg 81%
    21:00 +12°C° 0 mm 1 m/S 727 mmHg 82%
    22:00 +12°C° 0 mm 1 m/S 727 mmHg 82%
    23:00 +11°C° 0 mm 1 m/S 727 mmHg 82%

    Morgen, 20 Oktober, Freitag

    Zeit Temperatur Niederschläge Wind Luftdruck Luftfeuchtigkeit
    00:00 +11°C° 0 mm 1 m/S 727 mmHg 83%
    01:00 +11°C° 0 mm 1 m/S 727 mmHg 83%
    02:00 +10°C° 0 mm 1 m/S 727 mmHg 83%
    03:00 +10°C° 0 mm 1 m/S 727 mmHg 84%
    04:00 +10°C° 0 mm 1 m/S 727 mmHg 84%
    05:00 +10°C° 0 mm 1 m/S 727 mmHg 84%
    06:00 +9°C° 0 mm 1 m/S 728 mmHg 85%
    07:00 +9°C° 0 mm 1 m/S 728 mmHg 85%
    08:00 +11°C° 0 mm 1 m/S 728 mmHg 78%
    09:00 +13°C° 0 mm 2 m/S 728 mmHg 72%
    10:00 +15°C° 0 mm 2 m/S 728 mmHg 65%
    11:00 +16°C° 0 mm 2 m/S 728 mmHg 62%
    12:00 +17°C° 0 mm 2 m/S 728 mmHg 59%
    13:00 +18°C° 0 mm 2 m/S 729 mmHg 55%
    14:00 +19°C° 0 mm 1 m/S 729 mmHg 59%
    15:00 +19°C° 0 mm 1 m/S 729 mmHg 63%
    16:00 +18°C° 0 mm 1 m/S 729 mmHg 67%
    17:00 +16°C° 0 mm 1 m/S 729 mmHg 71%
    18:00 +15°C° 0 mm 1 m/S 729 mmHg 75%
    19:00 +13°C° 0 mm 0 m/S 729 mmHg 79%
    20:00 +13°C° 0,1 mm 1 m/S 730 mmHg 82%
    21:00 +13°C° 0,1 mm 1 m/S 730 mmHg 84%
    22:00 +12°C° 0,1 mm 1 m/S 730 mmHg 86%
    23:00 +12°C° 0 mm 1 m/S 730 mmHg 88%

    übermorgen, 21 Oktober, Samstag

    Zeit Temperatur Niederschläge Wind Luftdruck Luftfeuchtigkeit
    00:00 +12°C° 0 mm 1 m/S 730 mmHg 89%
    01:00 +11°C° 0 mm 1 m/S 730 mmHg 90%
    02:00 +11°C° 0 mm 1 m/S 730 mmHg 91%
    03:00 +11°C° 0 mm 1 m/S 729 mmHg 91%
    04:00 +11°C° 0 mm 1 m/S 729 mmHg 92%
    05:00 +10°C° 0 mm 2 m/S 729 mmHg 90%
    06:00 +12°C° 0 mm 2 m/S 729 mmHg 89%
    07:00 +12°C° 0 mm 2 m/S 729 mmHg 87%
    08:00 +13°C° 0 mm 2 m/S 729 mmHg 83%
    09:00 +13°C° 0 mm 3 m/S 729 mmHg 79%
    10:00 +14°C° 0 mm 3 m/S 729 mmHg 75%
    11:00 +16°C° 0 mm 3 m/S 729 mmHg 71%
    12:00 +17°C° 0 mm 3 m/S 729 mmHg 67%
    13:00 +18°C° 0 mm 3 m/S 728 mmHg 63%
    14:00 +18°C° 0 mm 3 m/S 728 mmHg 66%
    15:00 +18°C° 0 mm 2 m/S 728 mmHg 68%
    16:00 +18°C° 0 mm 2 m/S 728 mmHg 71%
    17:00 +16°C° 0,1 mm 2 m/S 728 mmHg 77%
    18:00 +15°C° 0,1 mm 2 m/S 728 mmHg 83%
    19:00 +13°C° 0,1 mm 3 m/S 728 mmHg 90%
    20:00 +12°C° 0,6 mm 3 m/S 729 mmHg 90%
    21:00 +12°C° 0,6 mm 3 m/S 729 mmHg 91%
    22:00 +12°C° 0,6 mm 3 m/S 729 mmHg 91%
    23:00 +11°C° 0,5 mm 3 m/S 730 mmHg 91%

    22 Oktober, Sonntag

    Zeit Temperatur Niederschläge Wind Luftdruck Luftfeuchtigkeit
    00:00 +11°C° 0,5 mm 3 m/S 730 mmHg 91%
    01:00 +10°C° 0,5 mm 3 m/S 730 mmHg 91%
    02:00 +10°C° 0,2 mm 3 m/S 730 mmHg 91%
    03:00 +10°C° 0,2 mm 3 m/S 730 mmHg 91%
    04:00 +9°C° 0,2 mm 3 m/S 730 mmHg 91%
    05:00 +9°C° 0,1 mm 3 m/S 730 mmHg 91%
    06:00 +9°C° 0,1 mm 3 m/S 730 mmHg 91%
    07:00 +8°C° 0,1 mm 3 m/S 729 mmHg 91%
    08:00 +8°C° 0,2 mm 3 m/S 730 mmHg 88%
    09:00 +8°C° 0,2 mm 4 m/S 730 mmHg 86%
    10:00 +8°C° 0,2 mm 4 m/S 730 mmHg 83%
    11:00 +8°C° 0,1 mm 4 m/S 730 mmHg 81%
    12:00 +8°C° 0,1 mm 4 m/S 730 mmHg 79%
    13:00 +8°C° 0,1 mm 4 m/S 730 mmHg 77%
    14:00 +8°C° 0,1 mm 4 m/S 730 mmHg 77%
    15:00 +8°C° 0,1 mm 4 m/S 730 mmHg 77%
    16:00 +9°C° 0,1 mm 3 m/S 730 mmHg 76%
    17:00 +8°C° 0 mm 3 m/S 730 mmHg 79%
    18:00 +7°C° 0 mm 3 m/S 730 mmHg 82%
    19:00 +7°C° 0 mm 3 m/S 730 mmHg 85%
    20:00 +7°C° 0 mm 3 m/S 730 mmHg 86%
    21:00 +6°C° 0 mm 4 m/S 730 mmHg 87%
    22:00 +5°C° 0 mm 4 m/S 730 mmHg 88%
    23:00 +5°C° 0 mm 4 m/S 730 mmHg 88%

    23 Oktober, Montag

    Zeit Temperatur Niederschläge Wind Luftdruck Luftfeuchtigkeit
    00:00 +5°C° 0 mm 4 m/S 730 mmHg 89%
    01:00 +5°C° 0 mm 5 m/S 730 mmHg 89%
    02:00 +6°C° 0,1 mm 5 m/S 730 mmHg 89%
    03:00 +6°C° 0,1 mm 5 m/S 730 mmHg 89%
    04:00 +6°C° 0,1 mm 5 m/S 730 mmHg 88%
    05:00 +6°C° 0,1 mm 4 m/S 730 mmHg 89%
    06:00 +6°C° 0,1 mm 4 m/S 730 mmHg 89%
    07:00 +6°C° 0,1 mm 4 m/S 731 mmHg 90%
    08:00 +6°C° 0,3 mm 4 m/S 731 mmHg 90%
    09:00 +6°C° 0,3 mm 4 m/S 732 mmHg 90%
    10:00 +7°C° 0,3 mm 4 m/S 732 mmHg 90%
    11:00 +7°C° 0,2 mm 5 m/S 732 mmHg 88%
    12:00 +7°C° 0,2 mm 5 m/S 732 mmHg 87%
    13:00 +8°C° 0,2 mm 5 m/S 732 mmHg 85%
    14:00 +8°C° 0,1 mm 4 m/S 733 mmHg 85%
    15:00 +8°C° 0,1 mm 4 m/S 733 mmHg 85%
    16:00 +9°C° 0,1 mm 3 m/S 733 mmHg 86%
    17:00 +9°C° 0,1 mm 3 m/S 733 mmHg 88%
    18:00 +8°C° 0,1 mm 3 m/S 733 mmHg 90%
    19:00 +8°C° 0,1 mm 3 m/S 734 mmHg 92%
    20:00 +8°C° 0,1 mm 3 m/S 734 mmHg 93%
    21:00 +8°C° 0,1 mm 3 m/S 734 mmHg 93%
    22:00 +8°C° 0,1 mm 3 m/S 734 mmHg 94%
    23:00 +8°C° 0,1 mm 3 m/S 735 mmHg 94%

    24 Oktober, Dienstag

    Zeit Temperatur Niederschläge Wind Luftdruck Luftfeuchtigkeit
    00:00 +9°C° 0,1 mm 3 m/S 735 mmHg 94%
    01:00 +9°C° 0,1 mm 3 m/S 735 mmHg 94%
    02:00 +8°C° 0,1 mm 3 m/S 734 mmHg 93%
    03:00 +8°C° 0,1 mm 3 m/S 734 mmHg 93%
    04:00 +8°C° 0,1 mm 3 m/S 734 mmHg 93%
    05:00 +8°C° 0,1 mm 3 m/S 734 mmHg 93%
    06:00 +8°C° 0,1 mm 2 m/S 734 mmHg 93%
    07:00 +7°C° 0,1 mm 2 m/S 734 mmHg 94%
    08:00 +8°C° 0 mm 2 m/S 735 mmHg 91%
    09:00 +9°C° 0 mm 2 m/S 735 mmHg 89%
    10:00 +9°C° 0 mm 2 m/S 735 mmHg 86%
    11:00 +10°C° 0 mm 2 m/S 735 mmHg 84%
    12:00 +12°C° 0 mm 1 m/S 735 mmHg 83%
    13:00 +12°C° 0 mm 1 m/S 735 mmHg 81%
    14:00 +12°C° 0 mm 1 m/S 735 mmHg 81%
    15:00 +13°C° 0 mm 1 m/S 735 mmHg 81%
    16:00 +12°C° 0 mm 0 m/S 735 mmHg 81%
    17:00 +11°C° 0 mm 0 m/S 735 mmHg 84%
    18:00 +9°C° 0 mm 0 m/S 735 mmHg 87%
    19:00 +8°C° 0 mm 0 m/S 735 mmHg 90%
    20:00 +8°C° 0 mm 0 m/S 735 mmHg 91%
    21:00 +9°C° 0 mm 1 m/S 735 mmHg 91%
    22:00 +9°C° 0 mm 1 m/S 736 mmHg 91%
    23:00 +9°C° 0 mm 1 m/S 736 mmHg 92%
    Mehr zeigen